Location: Campolattaro
(41.2833°N, 14.7333°E)
Time: 09:42:59
(UTC+00:00)

Cosmos 1356 Rocket - Pass Details

Date: 19 May 2025
Orbit: 517 x 565 km, 81.2° (Epoch: 23 June)

Event Time Altitude Azimuth Distance (km) Brightness Sun altitude
Exits shadow 20:28:26 50° 171° (S) 728 3.5 -19.7°
Maximum altitude 20:29:26 77° 99° (E) 585 3.2 -19.8°
Drops below altitude 10° 20:33:33 10° 13° (NNE) 1,861 6.5 -20.2°
Sets 20:35:43 0° 12° (NNE) 2,756 7.5 -20.5°
